Weather History for Crestview, FL

Change the Weather History Date:

Sunday, August 4, 2013

  Actual Average Record
Temperature  
Mean Temperature 84 °F -  
Max Temperature 96 °F 92 °F 99 °F (1951)
Min Temperature 73 °F 71 °F 64 °F (1998)
Cooling Degree Days 20    
Growing Degree Days 34 (Base 50)    
Moisture  
Dew Point 73 °F    
Average Humidity 76    
Maximum Humidity 94    
Minimum Humidity 46    
Precipitation  
Precipitation 0.00 in - - ()
Sea Level Pressure  
Sea Level Pressure 30.03 in    
Wind  
Wind Speed 2 mph (WNW)    
Max Wind Speed 16 mph    
Max Gust Speed 23 mph    
Visibility 7 miles    
Events Thunderstorm    
Averages and records for this station are not official NWS values.
T = Trace of Precipitation, MM = Missing Value Source: NWS Daily Summary

Daily Weather History Graph

Daily Weather History Graph

Search for Another Location

Airport:

Trip Planner

Search our weather history database for the weather conditions in past years. The results will help you decide how hot, cold, wet, or windy it might be!

Date:

Astronomy

Aug. 04, 2013 Rise Set
Actual Time 6:05 AM CDT 7:38 PM CDT
Civil Twilight 5:39 AM CDT 8:04 PM CDT
Nautical Twilight 5:08 AM CDT 8:35 PM CDT
Astronomical Twilight 4:35 AM CDT 9:07 PM CDT
Moon 4:07 AM CDT (8/4) 6:00 PM CDT (8/4)
Length of Visible Light 14h 24m
Length of Day
13h 32m
Waning Crescent, 4% of the Moon is Illuminated
Aug 4
Waning Crescent
Aug 6
New
Aug 14
First Quarter
Aug 20
Full
Aug 28
Last Quarter

Hourly Weather History & Observations

Time (CDT) Temp. Heat Index Dew Point Humidity Pressure Visibility Wind Dir Wind Speed Gust Speed Precip Events Conditions
12:53 AM 75.9 °F - 73.0 °F 91% 30.06 in 7.0 mi Calm Calm - N/A   Clear
1:53 AM 75.9 °F - 73.0 °F 91% 30.05 in 6.0 mi Calm Calm - N/A   Clear
2:53 AM 75.0 °F - 73.0 °F 94% 30.04 in 5.0 mi Calm Calm - N/A   Clear
3:53 AM 75.0 °F - 72.0 °F 90% 30.04 in 5.0 mi Calm Calm - N/A   Clear
4:53 AM 75.0 °F - 73.0 °F 94% 30.04 in 4.0 mi Calm Calm - N/A   Clear
5:32 AM 73.4 °F - 71.6 °F 94% 30.05 in 2.5 mi Calm Calm - N/A   Clear
5:41 AM 73.4 °F - 71.6 °F 94% 30.05 in 4.0 mi Calm Calm - N/A   Clear
5:53 AM 73.9 °F - 71.1 °F 91% 30.04 in 5.0 mi Calm Calm - N/A   Clear
6:11 AM 73.4 °F - 71.6 °F 94% 30.06 in 2.5 mi Calm Calm - N/A   Partly Cloudy
6:21 AM 73.4 °F - 71.6 °F 94% 30.06 in 3.0 mi Calm Calm - N/A   Partly Cloudy
6:32 AM 73.4 °F - 71.6 °F 94% 30.06 in 2.5 mi Calm Calm - N/A   Partly Cloudy
6:49 AM 75.2 °F - 71.6 °F 89% 30.07 in 3.0 mi Calm Calm - N/A   Clear
6:53 AM 75.0 °F - 72.0 °F 90% 30.06 in 4.0 mi Calm Calm - N/A   Clear
7:53 AM 82.9 °F 90.8 °F 75.9 °F 79% 30.07 in 6.0 mi Calm Calm - N/A   Haze
8:53 AM 86.0 °F 96.0 °F 75.9 °F 72% 30.07 in 8.0 mi West 6.9 mph - N/A   Clear
9:53 AM 89.1 °F 99.1 °F 75.0 °F 63% 30.07 in 8.0 mi WNW 6.9 mph - N/A   Clear
10:53 AM 91.9 °F 100.7 °F 73.0 °F 54% 30.07 in 8.0 mi NW 10.4 mph - N/A   Clear
11:53 AM 91.9 °F 100.7 °F 73.0 °F 54% 30.06 in 8.0 mi WNW 10.4 mph - N/A   Mostly Cloudy
12:53 PM 93.9 °F 103.4 °F 73.0 °F 51% 30.04 in 9.0 mi NW 8.1 mph - N/A   Scattered Clouds
1:53 PM 95.0 °F 102.5 °F 71.1 °F 46% 30.01 in 10.0 mi West 6.9 mph - N/A   Partly Cloudy
2:53 PM 95.0 °F 102.5 °F 71.1 °F 46% 29.99 in 10.0 mi NW 4.6 mph - N/A   Partly Cloudy
3:53 PM 96.1 °F 105.6 °F 73.0 °F 47% 29.97 in 9.0 mi Variable 4.6 mph - N/A   Partly Cloudy
4:53 PM 93.9 °F 100.8 °F 71.1 °F 47% 29.97 in 10.0 mi NW 3.5 mph - N/A   Clear
5:53 PM 91.9 °F 100.7 °F 73.0 °F 54% 29.97 in 9.0 mi NW 5.8 mph - N/A   Clear
6:09 PM 87.8 °F 93.8 °F 71.6 °F 58% 30.00 in 10.0 mi NNW 16.1 mph 23.0 mph N/A Thunderstorm Thunderstorm
6:53 PM 82.0 °F 87.4 °F 73.0 °F 74% 29.98 in 10.0 mi NW 3.5 mph - 0.00 in Thunderstorm Clear
7:07 PM 80.6 °F 85.4 °F 73.4 °F 79% 30.00 in 10.0 mi WSW 3.5 mph - N/A   Clear
7:15 PM 80.6 °F 85.4 °F 73.4 °F 79% 30.01 in 10.0 mi Calm Calm - N/A Thunderstorm Clear
7:30 PM 80.6 °F 85.4 °F 73.4 °F 79% 30.01 in 10.0 mi Calm Calm - N/A   Clear
7:53 PM 80.1 °F 84.2 °F 73.0 °F 79% 30.00 in 10.0 mi Calm Calm - N/A   Clear
8:53 PM 79.0 °F - 73.0 °F 82% 30.04 in 10.0 mi Calm Calm - N/A   Clear
9:53 PM 79.0 °F - 73.0 °F 82% 30.04 in 10.0 mi Calm Calm - N/A   Clear
10:53 PM 79.0 °F - 73.0 °F 82% 30.04 in 10.0 mi West 3.5 mph - N/A   Clear
11:53 PM 78.1 °F - 73.0 °F 84% 30.04 in 9.0 mi West 4.6 mph - N/A   Scattered Clouds